JCSAT-13

Last updated on Tue Oct 15 2024 00:02:39 GMT+0000 (Coordinated Universal Time)

1 38331U 12023A 24288.51507748 -.00000358 00000+0 00000+0 0 9992 2 38331 0.0424 79.7389 0002332 133.1478 120.1111 1.00272856 45412
UTC large
Height (km)
Speed (km/s)
/
Latitude / Longitude
Inclination (degrees)
Orbital Period (minutes)
Azimuth
Elevation
Range (km)
Doppler Factor

Next 0 passes for location: London (51.5072 / 0.1276)

Sorry there are no passes over London.